{"data":{"norad_id":51969,"epoch":"2026-09-20T02:02:15.709920Z","epoch_age_seconds":92030,"freshness":"FRESH","line1":"1 51969U 22025P   26263.08490405 -.00000427  00000+0 -19927-5 0  9997","line2":"2 51969  53.1598 199.6446 0001191  93.8434 266.2704 15.31693742250796","mean_motion":15.31693742,"eccentricity":0.0001191,"inclination_deg":53.1598,"raan_deg":199.6446,"arg_perigee_deg":93.8434,"mean_anomaly_deg":266.2704,"bstar":-1.9927e-6,"rev_number":25079,"period_min":94.013572068247,"perigee_km":469.9429465896,"apogee_km":471.57435353344,"semimajor_km":6848.8956500615,"source":"CELESTRAK","updated_at":"2026-09-20T09:00:39.977287Z"}}